Flag for Colombia Weather past 2 weeks in Manizales, Colombia

Now
66 °F

Passing clouds.


Feels Like: 66 °F
Forecast: 57 / 67 °F
Wind: 7 mph from East

Location: Pereira / Matecana

Current Time: May 26, 2015 at 1:45:35 AM

Latest Report: May 26, 2015 at 1:00 AM


Visibility: N/A

Pressure: 30.10 "Hg

Humidity: 88%

Dew point: 63 °F

Location of ManizalesLocation

Historic Weather in Manizales — Graph

°F

Manizales temperature yesterday

Maximum temperature yesterday: 79 °F (at 3:00 PM)
Minimum temperature yesterday: 66 °F (at 5:00 AM)
Average temperature yesterday: 70 °F

Past Weeks' High & Low Weather Summary

 TemperatureHumidityPressure
High88 °F (May 12, 3:00 PM)100% (May 21, 6:00 AM)30.16 "Hg (May 21, 6:00 AM)
Low64 °F (May 16, 6:00 AM)40% (May 12, 1:00 PM)29.71 "Hg (May 12, 5:00 PM)
Average73 °F77%30.04 "Hg
* Reported Midnight between May 10 and May 11 — Midnight between May 25 and May 26, Manizales, Weather by CustomWeather, © 2015

Note: Actual official high and low records may vary slightly from our data, if they occured in-between our weather recording intervals... More about our weather records

Advertising

Manizales weather history for previous 24 hours

 ConditionsComfort  
Time TempWeatherWind HumidityBarometerVisibility
12:00 AM
Tue, May 26
66 °FPassing clouds.9 mph88%30.12 "HgN/A
11:00 PM
Mon, May 25
68 °FFog.9 mph88%30.13 "HgN/A
10:00 PM66 °FFog.5 mph94%30.12 "HgN/A
9:00 PM66 °FFog.7 mph88%30.10 "HgN/A
8:00 PM66 °FThunderstorms. Partly cloudy.7 mph94%30.09 "Hg2 mi
7:00 PM70 °FLight rain. Partly cloudy.6 mph88%30.06 "HgN/A
6:00 PM75 °FScattered showers. Partly sunny.5 mph74%30.02 "HgN/A
5:00 PM77 °FScattered clouds.5 mph69%30.01 "HgN/A
4:00 PM79 °FScattered clouds.3 mph65%30.00 "HgN/A
3:00 PM79 °FScattered clouds.2 mph65%30.03 "HgN/A
2:00 PM75 °FScattered clouds.5 mph74%30.05 "HgN/A
1:00 PM75 °FScattered clouds.5 mph78%30.08 "HgN/A
12:00 PM73 °FScattered clouds.7 mph83%30.10 "HgN/A
11:00 AM72 °FScattered clouds.5 mph88%30.13 "Hg5 mi
10:00 AM68 °FDrizzle. Broken clouds.5 mph94%30.15 "Hg4 mi
9:00 AM66 °FBroken clouds.5 mph94%30.15 "Hg5 mi
8:00 AM66 °FFog.5 mph100%30.13 "Hg1 mi
7:00 AM66 °FBroken clouds.2 mph94%30.10 "HgN/A
6:00 AM66 °FFog.2 mph94%30.07 "HgN/A
5:00 AM66 °FPassing clouds.2 mph94%30.07 "Hg3 mi
Weather by CustomWeather, © 2015

See weather overviewHow to use our weather pages